FW9766 Weather Reports


time (UTC)temp
C
wind
direction
speed
KPH
gust
KPH
rain 1hr
cm
rain 24hr
cm
rain mn
cm
humidity
%
barometer
mb
20260510071555 21 0 0.0 0.0 0.00 0.00 0.00 85 1012.8
20260510070046 21 0 0.0 1.6 0.00 0.00 0.00 85 1012.7
20260510064541 21 0 0.0 4.8 0.00 0.00 0.00 84 1012.8
20260510063047 21 0 0.0 0.0 0.00 0.00 0.00 84 1012.8
20260510061550 22 0 0.0 0.0 0.00 0.00 0.00 83 1012.9
20260510060050 22 0 0.0 8.0 0.00 0.00 0.00 83 1012.8
20260510054549 22 0 0.0 4.8 0.00 0.00 0.00 83 1012.8
20260510053042 22 0 0.0 6.4 0.00 0.00 0.00 84 1012.7
20260510051541 21 95 0.0 3.2 0.00 0.00 0.00 84 1012.8
20260510050047 21 0 0.0 4.8 0.00 0.00 0.00 84 1012.7
20260510044550 22 0 0.0 0.0 0.00 0.00 0.00 83 1012.5
20260510043054 22 0 0.0 0.0 0.00 0.00 0.00 82 1012.5
20260510041545 23 0 0.0 0.0 0.00 0.00 0.00 80 1012.5
20260510040042 23 0 0.0 0.0 0.00 0.00 0.00 78 1012.5
20260510034549 23 0 0.0 4.8 0.00 0.00 0.00 78 1012.5
20260510033110 24 17 0.0 4.8 0.00 0.00 0.00 77 1012.3
20260510031551 24 40 0.0 9.7 0.00 0.00 0.00 77 1011.9
20260510030045 24 0 0.0 4.8 0.00 0.00 0.00 76 1011.6
20260510024546 25 0 0.0 0.0 0.00 0.00 0.00 73 1011.5
20260510023049 25 0 0.0 4.8 0.00 0.00 0.00 72 1011.3
20260510021547 25 0 0.0 0.0 0.00 0.00 0.00 70 1011.2
20260510020050 26 0 0.0 0.0 0.00 0.00 0.00 67 1010.8
20260510014547 26 0 0.0 0.0 0.00 0.00 0.00 64 1010.6
20260510013049 27 0 0.0 4.8 0.00 0.00 0.00 60 1010.3
20260510011552 28 0 0.0 1.6 0.00 0.00 0.00 56 1010.2
20260510010043 30 0 0.0 1.6 0.00 0.00 0.00 54 1010.1
20260510004552 31 0 0.0 3.2 0.00 0.00 0.00 49 1010.0
20260510003109 32 0 0.0 3.2 0.00 0.00 0.00 50 1009.9
20260510001545 32 0 0.0 4.8 0.00 0.00 0.00 49 1009.9
20260510000047 32 338 0.0 8.0 0.00 0.00 0.00 45 1009.7
20260509234600 32 0 0.0 6.4 0.00 0.00 0.00 47 1009.6
20260509233050 32 146 1.6 8.0 0.00 0.00 0.00 43 1009.4
20260509231553 32 108 0.0 8.0 0.00 0.00 0.00 44 1009.6
20260509230056 33 120 1.6 6.4 0.00 0.00 0.00 45 1009.7
20260509224545 32 0 1.6 4.8 0.00 0.00 0.00 43 1009.8
20260509223048 32 134 1.6 6.4 0.00 0.00 0.00 47 1009.9
20260509221548 31 190 0.0 4.8 0.00 0.00 0.00 48 1009.9
20260509220043 31 140 4.8 12.9 0.00 0.00 0.00 48 1010.0
20260509214543 32 299 3.2 12.9 0.00 0.00 0.00 48 1010.1
20260509213057 32 9 1.6 8.0 0.00 0.00 0.00 48 1010.2
20260509211547 31 192 1.6 16.1 0.00 0.00 0.00 49 1010.3
20260509210050 31 76 3.2 14.5 0.00 0.00 0.00 54 1010.5
20260509204545 31 125 3.2 9.7 0.00 0.00 0.00 55 1010.7
20260509203044 31 50 4.8 12.9 0.00 0.00 0.00 52 1011.1
20260509201542 31 76 3.2 9.7 0.00 0.00 0.00 55 1011.2
20260509200054 30 31 3.2 16.1 0.00 0.00 0.00 55 1011.6
20260509194546 30 173 6.4 12.9 0.00 0.00 0.00 58 1011.7
20260509193049 30 213 4.8 17.7 0.00 0.00 0.00 59 1011.8
20260509191545 30 121 3.2 16.1 0.00 0.00 0.00 60 1012.0
20260509190047 29 99 8.0 16.1 0.00 0.00 0.00 62 1012.1
20260509184548 28 151 6.4 12.9 0.00 0.00 0.00 63 1012.2
20260509183131 28 140 6.4 14.5 0.00 0.00 0.00 65 1012.3
20260509181601 28 171 8.0 14.5 0.00 0.00 0.00 69 1012.7
20260509180044 28 158 3.2 14.5 0.00 0.00 0.00 70 1012.9
20260509174541 27 168 4.8 12.9 0.00 0.00 0.00 71 1012.9
20260509173047 27 131 4.8 14.5 0.00 0.00 0.00 73 1013.1
20260509171548 26 146 9.7 16.1 0.00 0.00 0.00 74 1013.3
20260509170046 26 139 4.8 16.1 0.00 0.00 0.00 76 1013.1
20260509164544 26 112 4.8 16.1 0.00 0.00 0.00 79 1013.4
20260509163041 25 127 3.2 11.3 0.00 0.00 0.00 81 1013.5
20260509161540 24 85 4.8 14.5 0.00 0.00 0.00 85 1013.5
20260509160049 24 101 4.8 14.5 0.00 0.00 0.00 84 1013.6
20260509154552 23 117 4.8 16.1 0.00 0.00 0.00 87 1013.6
20260509153045 22 56 4.8 17.7 0.00 0.00 0.00 92 1013.3
20260509151546 22 83 1.6 9.7 0.00 0.00 0.00 90 1013.3
20260509150113 22 114 4.8 9.7 0.00 0.00 0.00 92 1013.2
20260509144548 21 130 4.8 11.3 0.00 0.00 0.00 95 1013.0
20260509143046 20 151 3.2 11.3 0.00 0.00 0.00 96 1013.0
20260509141545 20 0 0.0 0.0 0.00 0.00 0.00 97 1013.5
20260509140056 20 0 1.6 4.8 0.00 0.00 0.00 97 1013.6
20260509134544 20 0 0.0 3.2 0.00 0.00 0.00 98 1013.6
20260509133042 20 0 0.0 4.8 0.00 0.00 0.00 97 1013.6
20260509131547 20 282 1.6 9.7 0.00 0.00 0.00 97 1013.5
20260509130048 20 294 1.6 9.7 0.00 0.00 0.00 98 1013.2
20260509124546 20 290 1.6 6.4 0.00 0.00 0.00 98 1013.3
20260509123045 20 0 0.0 0.0 0.00 0.00 0.00 98 1013.3
20260509121550 20 281 0.0 4.8 0.00 0.00 0.00 97 1013.3
20260509120053 20 0 0.0 9.7 0.00 0.00 0.00 98 1013.4
20260509114547 20 304 3.2 16.1 0.00 0.00 0.00 98 1013.3
20260509113046 20 229 4.8 16.1 0.00 0.00 0.00 98 1013.2
20260509111549 20 295 4.8 14.5 0.00 0.00 0.00 98 1013.5
20260509110046 20 0 0.0 0.0 0.00 0.00 0.00 98 1012.8
20260509104544 20 0 0.0 4.8 0.00 0.00 0.00 98 1012.3
20260509103042 20 325 1.6 4.8 0.00 0.00 0.00 98 1012.2
20260509101554 19 0 0.0 4.8 0.00 0.00 0.00 98 1012.2
20260509100048 19 0 0.0 0.0 0.00 0.00 0.00 98 1012.0
20260509094546 19 0 0.0 0.0 0.00 0.00 0.00 98 1011.8
20260509093053 19 0 0.0 0.0 0.00 0.00 0.00 97 1011.6
20260509091549 19 0 0.0 0.0 0.00 0.00 0.00 97 1011.4
20260509090050 19 0 0.0 0.0 0.00 0.00 0.00 97 1011.2
20260509084554 19 0 0.0 0.0 0.00 0.00 0.00 97 1011.6
20260509083045 20 0 0.0 6.4 0.00 0.00 0.00 97 1011.9
20260509081545 20 0 0.0 0.0 0.00 0.00 0.00 97 1012.2
20260509080052 20 0 0.0 0.0 0.00 0.00 0.00 97 1012.2
20260509074542 20 0 0.0 0.0 0.00 0.00 0.00 97 1012.1
20260509073048 19 0 0.0 0.0 0.00 0.00 0.00 97 1012.1